Regional Weather Roundup
Issued by NWS

Home | Current Version | Previous Version | Graphics & Text | Print | Product List | Glossary Off
Versions: 1 2 3 4 5 6 7 8 9 10 11 12 13 14 15 16 17 18 19 20 21 22 23 24 25 26 27 28 29 30 31 32 33 34 35 36 37 38 39 40 41 42 43 44 45 46 47 48 49 50

000
ASUS43 KMKX 141521
RWRWI

WISCONSIN REGIONAL WEATHER ROUNDUP
NATIONAL WEATHER SERVICE MILWAUKEE/SULLIVAN WI
1000 AM CDT MON JUL 14 2014

NOTE: "FAIR" INDICATES FEW OR NO CLOUDS BELOW 12,000 FEET WITH NO
SIGNIFICANT WEATHER AND/OR OBSTRUCTIONS TO VISIBILITY.

WIZ001-002-006>008-014>016-023>028-141600-
NORTHWEST WISCONSIN

CITY           SKY/WX    TMP DP  RH WIND       PRES   REMARKS
SUPERIOR ARPT  CLOUDY    55  49  81 W13       29.85S
ASHLAND        PTSUNNY   59  52  77 VRB6      29.85S
HAYWARD        CLOUDY    56  49  77 W8        29.86S
SIREN          PTSUNNY   58  46  64 NW18      29.89S
RICE LAKE      CLOUDY    58  47  67 NW10      29.89S
LADYSMITH      CLOUDY    55  52  90 W5        29.88S
EAU CLAIRE     CLOUDY    61  54  77 SW12      29.87S
MENOMONIE      DRIZZLE   59  51  75 W12G26    29.89S
NEW RICHMOND   CLOUDY    59  46  61 NW12G20   29.91R
OSCEOLA        PTSUNNY   60  46  61 NW16G25   29.94R
$$

WIZ003>005-009-010-017-018-141600-
NORTH CENTRAL WISCONSIN

CITY           SKY/WX    TMP DP  RH WIND       PRES   REMARKS
WOODRUFF       PTSUNNY   63  54  71 SW5       29.82F
RHINELANDER    PTSUNNY   60  48  64 W9        29.85F
EAGLE RIVER    MOSUNNY   59  47  65 W3        29.83F
LAND O LAKES   CLOUDY    60  48  64 W5        29.84S
PHILLIPS       LGT RAIN  52  50  92 W6        29.86R
TOMAHAWK       CLOUDY    59  49  69 CALM      29.85F
MEDFORD        LGT RAIN  58  50  75 W5        29.86F
MERRILL        CLOUDY    60  49  67 NW6       29.86S
$$

WIZ029-030-035-036-043>047-141600-
CENTRAL WISCONSIN

CITY           SKY/WX    TMP DP  RH WIND       PRES   REMARKS
WAUSAU         CLOUDY    61  50  67 NW7       29.84S
MOSINEE        CLOUDY    61  54  77 W9        29.87S
MARSHFIELD     CLOUDY    63  52  67 NW8       29.87R
STEVENS POINT  CLOUDY    60  52  73 W5        29.87R
WAUPACA        CLOUDY    67  53  60 W8        29.85R
WAUTOMA        MOSUNNY   70  53  54 W9        29.86S
WISC RAPIDS    CLOUDY    65  53  65 NW7       29.87F
CAMP DOUGLAS   PTSUNNY  N/A N/A N/A W7        29.88S
$$

WIZ011>013-019>022-031-037>040-048>050-141600-
NORTHEAST WISCONSIN

CITY           SKY/WX    TMP DP  RH WIND       PRES   REMARKS
ANTIGO         CLOUDY    58  53  80 W6        29.85S
STURGEON BAY   CLOUDY    68  52  56 W8        29.84R
GREEN BAY      PTSUNNY   70  54  56 W9        29.83S
MANITOWOC      SUNNY     74  53  48 W10       29.83S
APPLETON       PTSUNNY   70  52  52 W10       29.85S
CLINTONVILLE   CLOUDY    63  54  72 CALM      29.84S
OSHKOSH        SUNNY     72  54  53 W9        29.83S
$$

WIZ032>034-041-042-053>061-141600-
SOUTHWEST WISCONSIN

CITY           SKY/WX    TMP DP  RH WIND       PRES   REMARKS
LA CROSSE      CLOUDY    68  52  56 W9        29.89S
SPARTA         CLOUDY    65  53  64 W5        29.89S
VIROQUA        FAIR      65  52  62 NW8       29.90S
BOSCOBEL       SUNNY     72  54  53 W9        29.89S
PRAIRIE DU CHI SUNNY     69  53  55 NW8       29.89S
PLATTEVILLE    FAIR      72  53  51 NW12      29.90S
$$

WIZ056-057-062-063-064-067-068-141600-
SOUTH CENTRAL WISCONSIN

CITY           SKY/WX    TMP DP  RH WIND       PRES   REMARKS
BARABOO/DELLS  SUNNY     70  51  50 W9        29.87S
LONE ROCK      SUNNY     74  57  55 NW8       29.88S
WATERTOWN      SUNNY     71  56  58 W5        29.86S
MADISON        MOSUNNY   73  53  49 VRB5      29.86F
MIDDLETON      FAIR      73  52  46 W9        29.88S
MONROE         MOSUNNY   73  48  40 NW9       29.88F
JANESVILLE     PTSUNNY   72  57  60 W6        29.86F
$$

WIZ051-052-058>065-066-070>072-141600-
SOUTHEAST WISCONSIN

CITY           SKY/WX    TMP DP  RH WIND       PRES   REMARKS
MILWAUKEE      PTSUNNY   73  53  49 W9G17     29.86S
WAUKESHA       MOSUNNY   70  55  60 W5        29.87S
MILWAUKEE/TIMM SUNNY     72  54  53 SW9       29.86F
RACINE         PTSUNNY   73  58  59 SW7       29.87F
BURLINGTON     PTSUNNY   69  60  73 SW5       29.87R
KENOSHA        PTSUNNY   70  59  68 SW7       29.87S
FOND DU LAC    SUNNY     73  54  51 W9        29.85R
SHEBOYGAN        N/A    N/A N/A N/A MISG      29.84S
WEST BEND      SUNNY     72  52  49 W5        29.85S
JUNEAU         SUNNY     70  41  35 W7        29.87S
$$

LSZ147-162-141600-
LAKE SUPERIOR

STATION/POSITION TIME  TEMP    WIND        PRES    WAVE
                       AIR SEA DIR/SP/G            HT/PER
                 (UTC) (F)     (DEG/KT/KT) (MB)    (FT/S)
W MID LAKE BUOY  1450   45 38  270/  4/  6 1010.5R   1
PORT WING        1440   55     270/ 11/ 13 1011.2R
SAXON HARBOR     1400           CALM  /  3 1010.5S
$$

LMZ867-665-643>646-141600-
LAKE MICHIGAN

STATION/POSITION TIME  TEMP    WIND        PRES    WAVE
                       AIR SEA DIR/SP/G            HT/PER
                 (UTC) (F)     (DEG/KT/KT) (MB)    (FT/S)
N MID LAKE BUOY  1450   61 61  320/  2/  2 1009.3R   1
NORTHPORT PIER   1400   65     320/  4/  8 1009.8S
KEWAUNEE LAKESHO 1500   71     270/  7/  9 1010.7S
SHEBOYGAN LAKESH 1500   67     170/  7/  9 1010.3R
PORT WASHINGTON  1400   73     260/  7/ 12 1011.2S
MILWAUKEE LAKESH 1500   72     260/  7/  9   N/A
S MID LAKE BUOY  1450   64 63  230/  6/  8 1011.3F   0
KENOSHA   LAKESH 1500   71     210/  4/  9   N/A
$$

TC  - TEMPERATURE IN CELSIUS
VSB - VISIBILITY IN STATUTE MILES
WCI - WIND CHILL INDEX
HX  - HEAT INDEX




USA.gov is the U.S. government's official web portal to all federal, state and local government web resources and services.